DL2AMT-9 Weather Reports


time (UTC)temp
C
wind
direction
speed
KPH
gust
KPH
rain 1hr
cm
rain 24hr
cm
rain mn
cm
humidity
%
barometer
mb
20260507081528 39 0.0 0.0 0.00 0.00 0.00 33 966.3
20260507081028 38 0.0 0.0 0.00 0.00 0.00 33 966.3
20260507080528 38 0.0 0.0 0.00 0.00 0.00 32 966.2
20260507080029 37 0.0 0.0 0.00 0.00 0.00 32 966.2
20260507075528 37 0.0 0.0 0.00 0.00 0.00 36 966.2
20260507075028 35 0.0 0.0 0.00 0.00 0.00 35 966.1
20260507074528 33 0.0 0.0 0.00 0.00 0.00 37 966.1
20260507074028 30 0.0 0.0 0.00 0.00 0.00 40 966.0
20260507061206 27 0.0 0.0 0.00 0.00 0.00 38 965.0
20260507060706 27 0.0 0.0 0.00 0.00 0.00 38 965.1
20260507060206 27 0.0 0.0 0.00 0.00 0.00 38 965.1
20260507055706 27 0.0 0.0 0.00 0.00 0.00 38 965.0
20260507055206 27 0.0 0.0 0.00 0.00 0.00 38 964.9
20260507054706 27 0.0 0.0 0.00 0.00 0.00 38 964.8
20260507054206 27 0.0 0.0 0.00 0.00 0.00 38 964.8
20260507053706 27 0.0 0.0 0.00 0.00 0.00 38 964.8
20260507053205 27 0.0 0.0 0.00 0.00 0.00 38 964.7
20260507052705 27 0.0 0.0 0.00 0.00 0.00 38 964.6
20260507052205 27 0.0 0.0 0.00 0.00 0.00 38 964.6
20260507051705 27 0.0 0.0 0.00 0.00 0.00 38 964.6
20260507051205 27 0.0 0.0 0.00 0.00 0.00 38 964.6
20260507050705 27 0.0 0.0 0.00 0.00 0.00 38 964.5
20260507050205 27 0.0 0.0 0.00 0.00 0.00 38 964.4
20260507045705 27 0.0 0.0 0.00 0.00 0.00 38 964.3
20260507045205 27 0.0 0.0 0.00 0.00 0.00 38 964.3
20260507044705 27 0.0 0.0 0.00 0.00 0.00 38 964.3
20260507044205 27 0.0 0.0 0.00 0.00 0.00 38 964.3
20260507043705 27 0.0 0.0 0.00 0.00 0.00 38 964.2
20260507043205 27 0.0 0.0 0.00 0.00 0.00 38 964.2
20260507042706 27 0.0 0.0 0.00 0.00 0.00 38 964.1
20260507042205 27 0.0 0.0 0.00 0.00 0.00 38 964.1
20260507041705 27 0.0 0.0 0.00 0.00 0.00 38 964.0
20260507041205 27 0.0 0.0 0.00 0.00 0.00 38 963.9
20260507040705 27 0.0 0.0 0.00 0.00 0.00 38 963.9
20260507040205 27 0.0 0.0 0.00 0.00 0.00 38 963.8
20260507035705 27 0.0 0.0 0.00 0.00 0.00 38 963.8
20260507035205 27 0.0 0.0 0.00 0.00 0.00 38 963.8
20260507034705 28 0.0 0.0 0.00 0.00 0.00 38 963.8
20260507034206 27 0.0 0.0 0.00 0.00 0.00 38 963.8
20260507033705 27 0.0 0.0 0.00 0.00 0.00 38 963.6
20260507033205 27 0.0 0.0 0.00 0.00 0.00 38 963.7
20260507032205 27 0.0 0.0 0.00 0.00 0.00 38 963.6
20260507031706 28 0.0 0.0 0.00 0.00 0.00 38 963.6
20260507031151 28 0.0 0.0 0.00 0.00 0.00 38 963.6
20260507030652 28 0.0 0.0 0.00 0.00 0.00 38 963.6
20260507030151 28 0.0 0.0 0.00 0.00 0.00 38 963.5
20260507025651 28 0.0 0.0 0.00 0.00 0.00 37 963.5
20260507025137 28 0.0 0.0 0.00 0.00 0.00 38 963.5
20260507024637 28 0.0 0.0 0.00 0.00 0.00 38 963.4
20260507024137 28 0.0 0.0 0.00 0.00 0.00 38 963.4
20260507023637 28 0.0 0.0 0.00 0.00 0.00 38 963.4
20260507023138 28 0.0 0.0 0.00 0.00 0.00 38 963.4
20260507022637 28 0.0 0.0 0.00 0.00 0.00 38 963.5
20260507022137 28 0.0 0.0 0.00 0.00 0.00 38 963.4
20260507021638 28 0.0 0.0 0.00 0.00 0.00 38 963.3
20260507021137 28 0.0 0.0 0.00 0.00 0.00 38 963.2
20260507020637 28 0.0 0.0 0.00 0.00 0.00 38 963.3
20260507020137 28 0.0 0.0 0.00 0.00 0.00 38 963.3
20260507015637 28 0.0 0.0 0.00 0.00 0.00 38 963.3
20260507015137 28 0.0 0.0 0.00 0.00 0.00 38 963.2
20260507014637 28 0.0 0.0 0.00 0.00 0.00 38 963.2
20260507014137 28 0.0 0.0 0.00 0.00 0.00 38 963.2
20260507013637 28 0.0 0.0 0.00 0.00 0.00 38 963.2
20260507013137 28 0.0 0.0 0.00 0.00 0.00 38 963.1
20260507012637 28 0.0 0.0 0.00 0.00 0.00 38 963.0
20260507012137 28 0.0 0.0 0.00 0.00 0.00 38 963.0
20260507011636 28 0.0 0.0 0.00 0.00 0.00 38 963.0
20260507010637 28 0.0 0.0 0.00 0.00 0.00 38 963.0
20260507010137 28 0.0 0.0 0.00 0.00 0.00 38 963.0
20260507005637 28 0.0 0.0 0.00 0.00 0.00 38 963.0
20260507005137 28 0.0 0.0 0.00 0.00 0.00 38 963.0
20260507004636 28 0.0 0.0 0.00 0.00 0.00 38 963.0
20260507004136 28 0.0 0.0 0.00 0.00 0.00 38 962.9
20260507003636 28 0.0 0.0 0.00 0.00 0.00 38 962.9
20260507003136 28 0.0 0.0 0.00 0.00 0.00 38 962.8
20260507002636 28 0.0 0.0 0.00 0.00 0.00 38 962.8
20260507002136 28 0.0 0.0 0.00 0.00 0.00 38 962.8
20260507001636 28 0.0 0.0 0.00 0.00 0.00 38 962.7
20260507001135 28 0.0 0.0 0.00 0.00 0.00 38 962.7
20260507000635 28 0.0 0.0 0.00 0.00 0.00 38 962.7
20260507000135 28 0.0 0.0 0.00 0.00 0.00 38 962.8
20260506235635 28 0.0 0.0 0.00 0.00 0.00 38 962.8
20260506235135 28 0.0 0.0 0.00 0.00 0.00 38 962.8
20260506234635 28 0.0 0.0 0.00 0.00 0.00 38 962.9
20260506234135 28 0.0 0.0 0.00 0.00 0.00 38 962.8
20260506233635 28 0.0 0.0 0.00 0.00 0.00 38 962.8
20260506233135 28 0.0 0.0 0.00 0.00 0.00 38 962.7
20260506232634 28 0.0 0.0 0.00 0.00 0.00 38 962.7
20260506232134 28 0.0 0.0 0.00 0.00 0.00 38 962.7
20260506231634 28 0.0 0.0 0.00 0.00 0.00 38 962.6
20260506231134 28 0.0 0.0 0.00 0.00 0.00 38 962.6
20260506230635 28 0.0 0.0 0.00 0.00 0.00 38 962.5
20260506230134 28 0.0 0.0 0.00 0.00 0.00 38 962.4
20260506225634 28 0.0 0.0 0.00 0.00 0.00 38 962.4
20260506225134 28 0.0 0.0 0.00 0.00 0.00 38 962.4
20260506224634 28 0.0 0.0 0.00 0.00 0.00 38 962.4
20260506224134 28 0.0 0.0 0.00 0.00 0.00 38 962.3
20260506223634 28 0.0 0.0 0.00 0.00 0.00 38 962.4
20260506223134 28 0.0 0.0 0.00 0.00 0.00 38 962.3
20260506222634 28 0.0 0.0 0.00 0.00 0.00 38 962.4
20260506222134 28 0.0 0.0 0.00 0.00 0.00 38 962.3
20260506221634 28 0.0 0.0 0.00 0.00 0.00 38 962.3
20260506221134 28 0.0 0.0 0.00 0.00 0.00 38 962.1
20260506220634 28 0.0 0.0 0.00 0.00 0.00 37 962.2
20260506220133 28 0.0 0.0 0.00 0.00 0.00 38 962.2
20260506215633 28 0.0 0.0 0.00 0.00 0.00 37 962.1
20260506215133 28 0.0 0.0 0.00 0.00 0.00 37 962.2
20260506214634 28 0.0 0.0 0.00 0.00 0.00 37 962.1
20260506214133 28 0.0 0.0 0.00 0.00 0.00 38 962.1
20260506213634 28 0.0 0.0 0.00 0.00 0.00 37 962.1
20260506213134 28 0.0 0.0 0.00 0.00 0.00 38 962.1
20260506212634 28 0.0 0.0 0.00 0.00 0.00 38 962.1
20260506212133 28 0.0 0.0 0.00 0.00 0.00 38 962.1
20260506211633 28 0.0 0.0 0.00 0.00 0.00 37 962.1
20260506211133 28 0.0 0.0 0.00 0.00 0.00 38 962.1
20260506210634 28 0.0 0.0 0.00 0.00 0.00 37 962.0
20260506210133 28 0.0 0.0 0.00 0.00 0.00 37 962.0
20260506205633 28 0.0 0.0 0.00 0.00 0.00 37 962.0
20260506205134 28 0.0 0.0 0.00 0.00 0.00 37 962.0
20260506204633 28 0.0 0.0 0.00 0.00 0.00 37 962.0
20260506204133 28 0.0 0.0 0.00 0.00 0.00 37 961.9
20260506203633 28 0.0 0.0 0.00 0.00 0.00 38 962.0
20260506203133 28 0.0 0.0 0.00 0.00 0.00 37 961.9
20260506202632 28 0.0 0.0 0.00 0.00 0.00 37 961.9
20260506202132 28 0.0 0.0 0.00 0.00 0.00 38 962.0
20260506201632 28 0.0 0.0 0.00 0.00 0.00 37 961.9
20260506201132 28 0.0 0.0 0.00 0.00 0.00 37 961.8
20260506200632 28 0.0 0.0 0.00 0.00 0.00 37 961.8
20260506200132 28 0.0 0.0 0.00 0.00 0.00 37 961.8
20260506195633 28 0.0 0.0 0.00 0.00 0.00 37 961.8
20260506195132 28 0.0 0.0 0.00 0.00 0.00 37 961.7
20260506194632 28 0.0 0.0 0.00 0.00 0.00 38 961.7
20260506194132 28 0.0 0.0 0.00 0.00 0.00 37 961.7
20260506193632 28 0.0 0.0 0.00 0.00 0.00 37 961.5
20260506193132 28 0.0 0.0 0.00 0.00 0.00 38 961.5
20260506192632 28 0.0 0.0 0.00 0.00 0.00 37 961.5
20260506192131 29 0.0 0.0 0.00 0.00 0.00 37 961.4
20260506191631 28 0.0 0.0 0.00 0.00 0.00 37 961.3
20260506191131 29 0.0 0.0 0.00 0.00 0.00 37 961.3
20260506190631 29 0.0 0.0 0.00 0.00 0.00 37 961.3
20260506190131 29 0.0 0.0 0.00 0.00 0.00 37 961.2
20260506185631 29 0.0 0.0 0.00 0.00 0.00 37 961.0
20260506185131 29 0.0 0.0 0.00 0.00 0.00 37 961.0
20260506184631 29 0.0 0.0 0.00 0.00 0.00 37 960.9
20260506184131 29 0.0 0.0 0.00 0.00 0.00 37 960.9
20260506183631 29 0.0 0.0 0.00 0.00 0.00 37 960.7
20260506183131 29 0.0 0.0 0.00 0.00 0.00 37 960.5
20260506182631 29 0.0 0.0 0.00 0.00 0.00 37 960.5
20260506182131 29 0.0 0.0 0.00 0.00 0.00 37 960.3
20260506181631 29 0.0 0.0 0.00 0.00 0.00 37 960.2
20260506181130 29 0.0 0.0 0.00 0.00 0.00 37 960.1
20260506180630 29 0.0 0.0 0.00 0.00 0.00 37 960.1
20260506180130 29 0.0 0.0 0.00 0.00 0.00 37 960.0
20260506175631 29 0.0 0.0 0.00 0.00 0.00 37 960.1
20260506175130 29 0.0 0.0 0.00 0.00 0.00 37 960.1
20260506174630 29 0.0 0.0 0.00 0.00 0.00 37 960.2
20260506174130 29 0.0 0.0 0.00 0.00 0.00 37 960.1
20260506173631 29 0.0 0.0 0.00 0.00 0.00 37 960.1
20260506173131 29 0.0 0.0 0.00 0.00 0.00 36 960.0
20260506172630 30 0.0 0.0 0.00 0.00 0.00 37 960.0
20260506172130 30 0.0 0.0 0.00 0.00 0.00 36 960.0
20260506171630 29 0.0 0.0 0.00 0.00 0.00 37 960.0
20260506171130 29 0.0 0.0 0.00 0.00 0.00 37 960.0
20260506170630 29 0.0 0.0 0.00 0.00 0.00 37 960.1
20260506170130 29 0.0 0.0 0.00 0.00 0.00 37 960.1
20260506165630 28 0.0 0.0 0.00 0.00 0.00 37 960.0
20260506165130 28 0.0 0.0 0.00 0.00 0.00 37 960.0
20260506164630 29 0.0 0.0 0.00 0.00 0.00 37 960.0
20260506164130 29 0.0 0.0 0.00 0.00 0.00 37 960.0
20260506163630 30 0.0 0.0 0.00 0.00 0.00 36 960.0
20260506163130 30 0.0 0.0 0.00 0.00 0.00 36 960.1
20260506162630 29 0.0 0.0 0.00 0.00 0.00 37 960.1
20260506162130 29 0.0 0.0 0.00 0.00 0.00 37 960.2
20260506161630 28 0.0 0.0 0.00 0.00 0.00 38 960.3
20260506161130 28 0.0 0.0 0.00 0.00 0.00 37 960.2
20260506160629 28 0.0 0.0 0.00 0.00 0.00 37 960.3
20260506160129 28 0.0 0.0 0.00 0.00 0.00 37 960.1
20260506155629 27 0.0 0.0 0.00 0.00 0.00 37 960.0
20260506155129 26 0.0 0.0 0.00 0.00 0.00 36 959.7
20260506154629 26 0.0 0.0 0.00 0.00 0.00 34 960.0
20260506154128 28 0.0 0.0 0.00 0.00 0.00 33 960.0
20260506153628 30 0.0 0.0 0.00 0.00 0.00 34 960.0
20260506153128 30 0.0 0.0 0.00 0.00 0.00 35 960.0
20260506152628 30 0.0 0.0 0.00 0.00 0.00 35 960.1
20260506152128 30 0.0 0.0 0.00 0.00 0.00 35 960.0
20260506151628 30 0.0 0.0 0.00 0.00 0.00 36 959.9
20260506151128 28 0.0 0.0 0.00 0.00 0.00 37 959.8
20260506150628 27 0.0 0.0 0.00 0.00 0.00 38 959.9
20260506150128 25 0.0 0.0 0.00 0.00 0.00 36 960.0
20260506145628 25 0.0 0.0 0.00 0.00 0.00 35 960.0
20260506145127 25 0.0 0.0 0.00 0.00 0.00 35 960.0
20260506144627 26 0.0 0.0 0.00 0.00 0.00 34 960.0
20260506144127 27 0.0 0.0 0.00 0.00 0.00 34 960.1
20260506143627 27 0.0 0.0 0.00 0.00 0.00 33 960.0
20260506143127 28 0.0 0.0 0.00 0.00 0.00 32 960.0
20260506142617 30 0.0 0.0 0.00 0.00 0.00 32 960.0
20260506142117 31 0.0 0.0 0.00 0.00 0.00 33 960.0
20260506141617 31 0.0 0.0 0.00 0.00 0.00 38 959.8
20260506141117 29 0.0 0.0 0.00 0.00 0.00 40 959.8
20260506140616 28 0.0 0.0 0.00 0.00 0.00 37 959.7
20260506140116 27 0.0 0.0 0.00 0.00 0.00 38 959.8
20260506135612 27 0.0 0.0 0.00 0.00 0.00 39 959.8
20260506135112 27 0.0 0.0 0.00 0.00 0.00 38 960.0
20260506134612 27 0.0 0.0 0.00 0.00 0.00 39 960.0
20260506134111 27 0.0 0.0 0.00 0.00 0.00 39 960.0
20260506133611 27 0.0 0.0 0.00 0.00 0.00 38 959.9
20260506133111 27 0.0 0.0 0.00 0.00 0.00 39 960.0
20260506132611 27 0.0 0.0 0.00 0.00 0.00 38 960.0
20260506132111 27 0.0 0.0 0.00 0.00 0.00 38 960.1
20260506131557 27 0.0 0.0 0.00 0.00 0.00 39 960.1
20260506131057 27 0.0 0.0 0.00 0.00 0.00 38 960.0
20260506130557 27 0.0 0.0 0.00 0.00 0.00 39 960.0
20260506130057 27 0.0 0.0 0.00 0.00 0.00 39 960.0
20260506125557 27 0.0 0.0 0.00 0.00 0.00 39 960.1
20260506125057 27 0.0 0.0 0.00 0.00 0.00 39 960.0
20260506124557 27 0.0 0.0 0.00 0.00 0.00 38 960.1
20260506124057 27 0.0 0.0 0.00 0.00 0.00 38 960.1
20260506123557 27 0.0 0.0 0.00 0.00 0.00 39 960.1
20260506123057 27 0.0 0.0 0.00 0.00 0.00 39 960.1
20260506122557 27 0.0 0.0 0.00 0.00 0.00 39 960.1
20260506122057 27 0.0 0.0 0.00 0.00 0.00 38 960.1
20260506121557 27 0.0 0.0 0.00 0.00 0.00 38 960.1
20260506121057 27 0.0 0.0 0.00 0.00 0.00 39 960.2
20260506120557 27 0.0 0.0 0.00 0.00 0.00 38 960.1
20260506120057 27 0.0 0.0 0.00 0.00 0.00 39 960.2
20260506115557 27 0.0 0.0 0.00 0.00 0.00 39 960.1
20260506115057 27 0.0 0.0 0.00 0.00 0.00 39 960.0
20260506114557 27 0.0 0.0 0.00 0.00 0.00 39 960.1
20260506114057 27 0.0 0.0 0.00 0.00 0.00 39 960.1
20260506113557 27 0.0 0.0 0.00 0.00 0.00 40 960.0
20260506113057 27 0.0 0.0 0.00 0.00 0.00 40 960.1
20260506112557 27 0.0 0.0 0.00 0.00 0.00 40 960.1
20260506112057 27 0.0 0.0 0.00 0.00 0.00 41 960.1
20260506111557 27 0.0 0.0 0.00 0.00 0.00 42 960.2
20260506111057 27 0.0 0.0 0.00 0.00 0.00 44 960.1